CES371 WADD-WAAA

Flight info

Callsign CES371
Flight time 1h 17m
Altitude 29000
Route PEDET3A PEDET W41 LIPOT LIPOT1L
Aircraft B738/M-SDE2E3FGHIRWXY/LB1

Departure

Time 2026-05-04 08:08
Airport Denpasar I Gusti Ngurah Rai International Airport (WADD)

Arrival

Time 2026-05-04 09:26
Airport Sultan Hasanuddin International Airport (WAAA)
Time Latitude Longitude Altitude Speed Heading
2026-05-04 07:46 -8.74536 115.17132 32 ft 0 kts 357°
2026-05-04 07:56 -8.74537 115.17132 59 ft 1 kts 357°
2026-05-04 07:57 -8.74560 115.17133 32 ft 4 kts 355°
2026-05-04 07:57 -8.74588 115.17136 32 ft 4 kts 353°
2026-05-04 07:57 -8.74614 115.17140 30 ft 4 kts 348°
2026-05-04 07:57 -8.74640 115.17147 31 ft 4 kts 335°
2026-05-04 07:58 -8.74659 115.17161 31 ft 4 kts 286°
2026-05-04 07:58 -8.74661 115.17167 31 ft 1 kts 267°
2026-05-04 08:00 -8.74661 115.17160 31 ft 3 kts 268°
2026-05-04 08:02 -8.74683 115.16622 31 ft 20 kts 268°
2026-05-04 08:02 -8.74689 115.16482 31 ft 20 kts 268°
2026-05-04 08:02 -8.74694 115.16346 32 ft 19 kts 268°
2026-05-04 08:03 -8.74700 115.16215 32 ft 18 kts 268°
2026-05-04 08:03 -8.74705 115.16088 32 ft 18 kts 268°
2026-05-04 08:03 -8.74710 115.15966 32 ft 17 kts 268°
2026-05-04 08:03 -8.74714 115.15848 32 ft 16 kts 268°
2026-05-04 08:04 -8.74720 115.15733 32 ft 17 kts 268°
2026-05-04 08:04 -8.74724 115.15607 31 ft 19 kts 268°
2026-05-04 08:04 -8.74730 115.15467 31 ft 19 kts 267°
2026-05-04 08:04 -8.74772 115.15393 31 ft 13 kts 199°
2026-05-04 08:05 -8.74814 115.15390 29 ft 0 kts 175°
2026-05-04 08:05 -8.74819 115.15390 29 ft 2 kts 174°
2026-05-04 08:05 -8.74849 115.15393 28 ft 6 kts 175°
2026-05-04 08:05 -8.74890 115.15417 28 ft 7 kts 121°
2026-05-04 08:06 -8.74895 115.15469 28 ft 8 kts 88°
2026-05-04 08:06 -8.74889 115.15617 28 ft 52 kts 88°
2026-05-04 08:06 -8.74864 115.16230 27 ft 120 kts 87°
2026-05-04 08:06 -8.74822 115.17272 117 ft 168 kts 91°
2026-05-04 08:08 -8.74450 115.27031 3916 ft 258 kts 88°
2026-05-04 08:08 -8.74367 115.28855 4719 ft 261 kts 87°
2026-05-04 08:10 -8.73716 115.44222 9007 ft 280 kts 88°
2026-05-04 08:11 -8.73634 115.46199 9020 ft 283 kts 88°
2026-05-04 08:11 -8.73353 115.50192 8998 ft 288 kts 74°
2026-05-04 08:11 -8.72449 115.51984 9008 ft 289 kts 51°
2026-05-04 08:12 -8.71064 115.53451 9026 ft 289 kts 46°
2026-05-04 08:12 -8.69629 115.54873 9017 ft 289 kts 46°
2026-05-04 08:12 -8.68192 115.56288 9023 ft 288 kts 45°
2026-05-04 08:12 -8.66757 115.57707 9004 ft 288 kts 46°
2026-05-04 08:13 -8.65332 115.59122 9011 ft 286 kts 46°
2026-05-04 08:13 -8.63919 115.60532 9010 ft 285 kts 46°
2026-05-04 08:13 -8.62512 115.61939 9006 ft 284 kts 46°
2026-05-04 08:13 -8.61112 115.63342 9007 ft 283 kts 46°
2026-05-04 08:14 -8.59717 115.64741 9013 ft 283 kts 46°
2026-05-04 08:14 -8.58319 115.66142 9011 ft 284 kts 46°
2026-05-04 08:14 -8.56914 115.67550 9017 ft 284 kts 46°
2026-05-04 08:16 -8.50654 115.80775 10855 ft 354 kts 70°
2026-05-04 08:16 -8.49760 115.83137 11205 ft 364 kts 70°
2026-05-04 08:16 -8.48846 115.85544 11697 ft 369 kts 70°
2026-05-04 08:17 -8.47921 115.87976 12256 ft 373 kts 70°
2026-05-04 08:17 -8.46988 115.90432 12785 ft 377 kts 70°
2026-05-04 08:17 -8.46043 115.92918 13293 ft 381 kts 70°
2026-05-04 08:17 -8.45088 115.95427 13795 ft 385 kts 70°
2026-05-04 08:19 -8.38265 116.13389 15008 ft 392 kts 70°
2026-05-04 08:19 -8.37290 116.15951 15021 ft 391 kts 70°
2026-05-04 08:20 -8.36315 116.18515 15014 ft 391 kts 70°
2026-05-04 08:20 -8.35341 116.21077 15023 ft 391 kts 70°
2026-05-04 08:20 -8.34363 116.23647 15023 ft 392 kts 70°
2026-05-04 08:20 -8.33385 116.26219 15028 ft 393 kts 70°
2026-05-04 08:21 -8.32407 116.28791 15011 ft 393 kts 70°
2026-05-04 08:21 -8.31425 116.31368 15011 ft 393 kts 70°
2026-05-04 08:21 -8.30442 116.33952 15061 ft 398 kts 70°
2026-05-04 08:21 -8.29448 116.36567 15550 ft 399 kts 70°
2026-05-04 08:22 -8.28453 116.39182 16091 ft 399 kts 70°
2026-05-04 08:22 -8.27455 116.41808 16544 ft 402 kts 70°
2026-05-04 08:24 -8.20927 116.57427 18895 ft 421 kts 47°
2026-05-04 08:24 -8.18682 116.59252 19273 ft 422 kts 29°
2026-05-04 08:24 -8.15962 116.60349 19653 ft 424 kts 12°
2026-05-04 08:24 -8.13032 116.60676 20044 ft 424 kts
2026-05-04 08:25 -8.10075 116.60837 20383 ft 427 kts
2026-05-04 08:25 -8.07099 116.60971 20712 ft 429 kts
2026-05-04 08:25 -8.04108 116.61107 21042 ft 431 kts
2026-05-04 08:25 -8.01108 116.61256 21369 ft 433 kts
2026-05-04 08:26 -7.98085 116.61419 21670 ft 436 kts
2026-05-04 08:27 -7.76595 116.62689 23656 ft 448 kts
2026-05-04 08:28 -7.73482 116.62873 23873 ft 449 kts
2026-05-04 08:28 -7.70354 116.63059 24105 ft 451 kts
2026-05-04 08:28 -7.67222 116.63244 24341 ft 452 kts
2026-05-04 08:28 -7.64082 116.63430 24573 ft 453 kts
2026-05-04 08:29 -7.60931 116.63617 24797 ft 454 kts
2026-05-04 08:29 -7.57770 116.63805 24990 ft 456 kts
2026-05-04 08:29 -7.54605 116.64044 25181 ft 457 kts 10°
2026-05-04 08:31 -7.38593 116.79074 26580 ft 464 kts 50°
2026-05-04 08:33 -7.24031 116.96481 28389 ft 462 kts 50°
2026-05-04 08:33 -7.21958 116.98950 28724 ft 461 kts 50°
2026-05-04 08:35 -7.08118 117.15431 29004 ft 459 kts 50°
2026-05-04 08:35 -7.06055 117.17886 29002 ft 459 kts 50°
2026-05-04 08:35 -7.01936 117.22788 29002 ft 458 kts 50°
2026-05-04 08:37 -6.87479 117.39978 29002 ft 461 kts 50°
2026-05-04 08:38 -6.83328 117.44912 29002 ft 462 kts 50°
2026-05-04 08:38 -6.79171 117.49850 29002 ft 463 kts 50°
2026-05-04 08:40 -6.61634 117.68798 28997 ft 464 kts 40°
2026-05-04 08:41 -6.56636 117.72906 29000 ft 464 kts 40°
2026-05-04 08:41 -6.51688 117.77056 28999 ft 463 kts 40°
2026-05-04 08:42 -6.46810 117.81216 28998 ft 463 kts 41°
2026-05-04 08:42 -6.41911 117.85414 28997 ft 462 kts 41°
2026-05-04 08:43 -6.37021 117.89603 29004 ft 462 kts 41°
2026-05-04 08:43 -6.32129 117.93790 29011 ft 461 kts 41°
2026-05-04 08:44 -6.27244 117.97966 29010 ft 461 kts 41°
2026-05-04 08:46 -6.07716 118.14658 29009 ft 460 kts 41°
2026-05-04 08:46 -6.02823 118.18837 28565 ft 464 kts 41°
2026-05-04 08:46 -6.00370 118.20931 28185 ft 461 kts 41°
2026-05-04 08:47 -5.97935 118.23010 27816 ft 460 kts 41°
2026-05-04 08:47 -5.95493 118.25095 27455 ft 462 kts 41°
2026-05-04 08:47 -5.93045 118.27185 27087 ft 463 kts 41°
2026-05-04 08:47 -5.90588 118.29284 26738 ft 464 kts 41°
2026-05-04 08:48 -5.88129 118.31382 26385 ft 464 kts 41°
2026-05-04 08:48 -5.85670 118.33481 26035 ft 464 kts 41°
2026-05-04 08:48 -5.83205 118.35584 25688 ft 465 kts 41°
2026-05-04 08:48 -5.80741 118.37686 25348 ft 465 kts 41°
2026-05-04 08:49 -5.78277 118.39788 25013 ft 465 kts 41°
2026-05-04 08:50 -5.63529 118.52589 22996 ft 470 kts 46°
2026-05-04 08:50 -5.61289 118.54991 22620 ft 470 kts 49°
2026-05-04 08:51 -5.59108 118.57438 22250 ft 471 kts 49°
2026-05-04 08:51 -5.56925 118.59892 21874 ft 472 kts 49°
2026-05-04 08:51 -5.54718 118.62334 21512 ft 472 kts 48°
2026-05-04 08:51 -5.52520 118.64729 21153 ft 472 kts 48°
2026-05-04 08:52 -5.50307 118.67116 20777 ft 457 kts 47°
2026-05-04 08:52 -5.48190 118.69388 20405 ft 436 kts 47°
2026-05-04 08:52 -5.46138 118.71594 20063 ft 432 kts 48°
2026-05-04 08:52 -5.44750 118.73088 19840 ft 435 kts 48°
2026-05-04 08:53 -5.44123 118.73763 19737 ft 435 kts 47°
2026-05-04 08:54 -5.28233 118.85033 18144 ft 379 kts 34°
2026-05-04 08:55 -5.26045 118.86502 17896 ft 378 kts 34°
2026-05-04 08:55 -5.23862 118.87972 17646 ft 377 kts 34°
2026-05-04 08:55 -5.21687 118.89436 17395 ft 376 kts 34°
2026-05-04 08:55 -5.19517 118.90897 17139 ft 375 kts 34°
2026-05-04 08:57 -5.02329 118.94833 16837 ft 375 kts
2026-05-04 09:01 -4.73377 119.05966 10677 ft 343 kts 71°
2026-05-04 09:01 -4.72596 119.08220 10257 ft 341 kts 71°
2026-05-04 09:01 -4.71806 119.10460 9844 ft 340 kts 71°
2026-05-04 09:01 -4.71034 119.12624 9754 ft 326 kts 71°
2026-05-04 09:02 -4.70281 119.14723 9709 ft 313 kts 71°
2026-05-04 09:02 -4.69547 119.16766 9603 ft 303 kts 71°
2026-05-04 09:02 -4.68885 119.18700 9510 ft 292 kts 78°
2026-05-04 09:02 -4.68841 119.20675 9406 ft 280 kts 103°
2026-05-04 09:03 -4.69568 119.22450 9191 ft 274 kts 123°
2026-05-04 09:03 -4.70860 119.23864 8881 ft 274 kts 142°
2026-05-04 09:03 -4.72431 119.24954 8575 ft 274 kts 146°
2026-05-04 09:03 -4.73995 119.25977 8331 ft 271 kts 146°
2026-05-04 09:04 -4.75573 119.27003 8021 ft 271 kts 146°
2026-05-04 09:04 -4.77151 119.28034 7743 ft 270 kts 146°
2026-05-04 09:04 -4.78742 119.29079 7466 ft 269 kts 146°
2026-05-04 09:04 -4.80283 119.30096 7186 ft 268 kts 146°
2026-05-04 09:05 -4.81835 119.31123 6932 ft 267 kts 146°
2026-05-04 09:05 -4.83386 119.32150 6506 ft 266 kts 145°
2026-05-04 09:05 -4.84926 119.33172 6087 ft 265 kts 145°
2026-05-04 09:05 -4.86461 119.34190 5651 ft 264 kts 145°
2026-05-04 09:06 -4.87986 119.35202 5203 ft 262 kts 145°
2026-05-04 09:07 -4.89893 119.44087 3033 ft 223 kts 12°
2026-05-04 09:08 -4.88432 119.43955 2998 ft 207 kts 336°
2026-05-04 09:08 -4.87411 119.43049 2990 ft 191 kts 297°
2026-05-04 09:08 -4.87202 119.41790 3000 ft 184 kts 256°
2026-05-04 09:08 -4.87837 119.40693 3028 ft 186 kts 221°
2026-05-04 09:09 -4.88828 119.39829 3006 ft 191 kts 213°
2026-05-04 09:09 -4.89998 119.39269 2990 ft 184 kts 191°
2026-05-04 09:09 -4.91243 119.39217 2992 ft 178 kts 167°
2026-05-04 09:09 -4.92301 119.39790 3038 ft 174 kts 136°
2026-05-04 09:10 -4.93213 119.40617 3021 ft 179 kts 136°
2026-05-04 09:10 -4.94142 119.41463 3027 ft 181 kts 135°
2026-05-04 09:10 -4.95025 119.42367 2993 ft 183 kts 131°
2026-05-04 09:10 -4.95877 119.43331 2798 ft 186 kts 130°
2026-05-04 09:11 -4.96712 119.44306 2567 ft 182 kts 130°
2026-05-04 09:11 -4.97513 119.45248 2338 ft 171 kts 130°
2026-05-04 09:11 -4.98273 119.46140 2130 ft 166 kts 130°
2026-05-04 09:11 -4.99009 119.47004 1970 ft 159 kts 130°
2026-05-04 09:12 -4.99732 119.47857 1725 ft 160 kts 131°
2026-05-04 09:12 -5.00453 119.48703 1517 ft 160 kts 131°
2026-05-04 09:14 -5.05690 119.54844 47 ft 166 kts 128°
2026-05-04 09:14 -5.06411 119.55686 151 ft 164 kts 129°
2026-05-04 09:14 -5.07181 119.56625 786 ft 184 kts 120°
2026-05-04 09:14 -5.07524 119.57775 1492 ft 169 kts 84°
2026-05-04 09:15 -5.07059 119.58889 1689 ft 180 kts 47°
2026-05-04 09:15 -5.06004 119.59553 1815 ft 181 kts 16°
2026-05-04 09:15 -5.04754 119.59643 2086 ft 185 kts 353°
2026-05-04 09:15 -5.03443 119.59269 2499 ft 204 kts 335°
2026-05-04 09:17 -4.96283 119.51513 3036 ft 191 kts 311°
2026-05-04 09:18 -4.95421 119.50492 3027 ft 192 kts 311°
2026-05-04 09:18 -4.94554 119.49477 3028 ft 191 kts 311°
2026-05-04 09:18 -4.93689 119.48461 3032 ft 192 kts 311°
2026-05-04 09:18 -4.92825 119.47436 3022 ft 193 kts 311°
2026-05-04 09:19 -4.91956 119.46414 3030 ft 192 kts 311°
2026-05-04 09:19 -4.91093 119.45388 3008 ft 191 kts 311°
2026-05-04 09:19 -4.90241 119.44380 3009 ft 188 kts 311°
2026-05-04 09:19 -4.89403 119.43392 3008 ft 185 kts 311°
2026-05-04 09:20 -4.88635 119.42363 2999 ft 186 kts 295°
2026-05-04 09:20 -4.88401 119.41096 3039 ft 191 kts 263°
2026-05-04 09:20 -4.88852 119.39843 3019 ft 193 kts 232°
2026-05-04 09:20 -4.89821 119.38949 2997 ft 188 kts 201°
2026-05-04 09:21 -4.90662 119.38807 3013 ft 179 kts 167°
2026-05-04 09:21 -4.92052 119.39625 3034 ft 181 kts 141°
2026-05-04 09:21 -4.92723 119.40162 3032 ft 184 kts 138°
2026-05-04 09:21 -4.93678 119.41013 3014 ft 182 kts 136°
2026-05-04 09:22 -4.94580 119.41883 3006 ft 178 kts 132°
2026-05-04 09:22 -4.95417 119.42803 2921 ft 180 kts 130°
2026-05-04 09:22 -4.96241 119.43756 2698 ft 184 kts 130°
2026-05-04 09:22 -4.97070 119.44725 2465 ft 182 kts 130°
2026-05-04 09:23 -4.97882 119.45679 2248 ft 176 kts 130°
2026-05-04 09:23 -4.98664 119.46601 2016 ft 172 kts 130°
2026-05-04 09:23 -4.99444 119.47517 1819 ft 172 kts 131°
2026-05-04 09:23 -5.00204 119.48408 1584 ft 165 kts 131°
2026-05-04 09:25 -5.05368 119.54460 124 ft 167 kts 129°
2026-05-04 09:25 -5.06087 119.55311 40 ft 140 kts 130°
2026-05-04 09:26 -5.06535 119.55838 42 ft 49 kts 130°
2026-05-04 09:26 -5.06690 119.56017 41 ft 32 kts 130°